[Iaude] MPEC J288: 2024 JH15 [a=1.44,e=0.34,i=22.2,H=27.2]
    mpec at cfa.harvard.edu 
    mpec at cfa.harvard.edu
       
    Sun May 12 20:11:32 EDT 2024
    
    
  
M.P.E.C. 2024-J288                                 Issued 2024 May 13, 00:09 UT
     The Minor Planet Electronic Circulars contain information on unusual
         minor planets, routine data on comets and natural satellites,
         and occasional editorial announcements.  They are published
    on behalf of Division F of the International Astronomical Union by the
          Minor Planet Center, Smithsonian Astrophysical Observatory,
                          Cambridge, MA 02138, U.S.A.
			  
             Prepared using the Tamkin Foundation Computer Network
                              MPC at CFA.HARVARD.EDU
            URL https://www.minorplanetcenter.net/    ISSN 1523-6714
                                   2024 JH15                                    
Observations:
     K24J15H*1C2024 05 12.35501515 49 56.244+36 03 09.32         21.00GVEJ288G96
     K24J15H 1C2024 05 12.36020015 49 53.432+36 02 22.13         21.17GVEJ288G96
     K24J15H 1C2024 05 12.36537915 49 50.617+36 01 34.82         20.85GVEJ288G96
     K24J15H 1C2024 05 12.37055715 49 47.788+36 00 48.17         20.47GVEJ288G96
     K24J15H  C2024 05 12.38479615 49 38.749+35 58 20.37         20.6 GVEJ288H01
     K24J15H  C2024 05 12.38995715 49 35.971+35 57 31.18         20.5 GVEJ288H01
     K24J15H  C2024 05 12.39808615 49 31.609+35 56 13.04         20.8 GVEJ288H01
     K24J15H KC2024 05 12.39819215 49 32.754+35 56 26.63         21.06GVEJ288I52
     K24J15H KC2024 05 12.40104215 49 31.213+35 55 59.12         20.88GVEJ288I52
     K24J15H KC2024 05 12.40389615 49 29.672+35 55 31.58         20.84GVEJ288I52
     K24J15H KC2024 05 12.40674515 49 28.117+35 55 03.97         21.06GVEJ288I52
     K24J15H  C2024 05 12.40839315 49 26.086+35 54 32.74         20.6 GVEJ288H01
     K24J15H KC2024 05 12.46844415 48 55.231+35 44 39.44         20.97GVEJ288I52
     K24J15H KC2024 05 12.46944915 48 54.666+35 44 29.15         20.87GVEJ288I52
     K24J15H KC2024 05 12.47045915 48 54.176+35 44 18.42         21.06GVEJ288I52
     K24J15H KC2024 05 12.47145815 48 53.597+35 44 07.84         20.86GVEJ288I52
     K24J15H 1C2024 05 12.86503 15 46 24.31 +34 29 16.6          20.7 VXEJ288033
     K24J15H 1C2024 05 12.86599 15 46 23.70 +34 29 04.4          20.2 VXEJ288033
     K24J15H 1C2024 05 12.86694 15 46 23.09 +34 28 52.8          20.8 VXEJ288033
     K24J15H 1C2024 05 12.86813 15 46 22.33 +34 28 38.0          20.4 VXEJ288033
     K24J15H 1C2024 05 12.86920 15 46 21.65 +34 28 24.7          20.5 VXEJ288033
     K24J15H KC2024 05 12.89473815 46 04.41 +34 23 09.0          20.9 GVEJ288K62
     K24J15H KC2024 05 12.89778015 46 02.40 +34 22 29.9          20.8 GVEJ288K62
     K24J15H KC2024 05 12.90393515 45 58.22 +34 21 10.4          20.7 GVEJ288K62
     K24J15H KC2024 05 12.91004815 45 54.09 +34 19 51.5          20.7 GVEJ288K62
Observer details:
033 Karl Schwarzschild Observatory, Tautenburg.  Observers C. Heogner, F.
    Ludwig, M. Hartmann, B. Stecklum.  Measurer B. Stecklum.  1.34-m f/3
    Schmidt + CCD.
G96 Mt. Lemmon Survey.  Observer K. W. Wierzchos.  Measurers T. Beuden, V. F.
    Carvajal, D. Fay, J. B. Fazekas, D. C. Fuls, A. R. Gibbs, A. D. Grauer, H.
    Groeller, J. K. Hogan, R. A. Kowalski, S. M. Larson, G. J. Leonard, D.
    Rankin, R. L. Seaman, F. C. Shelly, K. W. Wierzchos.  1.5-m reflector +
    10K CCD.
H01 Magdalena Ridge Observatory, Socorro.  Observers W. H. Ryan, E. V. Ryan.
    Measurer W. H. Ryan.  2.4-m f/8.9 Ritchey-Chretien + CCD.
I52 Steward Observatory, Mt. Lemmon Station.  Observer T. Beuden.  Measurers
    T. Beuden, V. F. Carvajal, D. Fay, J. B. Fazekas, D. C. Fuls, A. R. Gibbs,
    A. D. Grauer, H. Groeller, J. K. Hogan, R. A. Kowalski, S. M. Larson, G.
    J. Leonard, D. Rankin, R. L. Seaman, F. C. Shelly, K. W. Wierzchos.  1.0-m
    prime focus + CCD.
K62 Teplice Observatory.  Observer Z. Moravec.  0.60-m f/3.3 reflector + CMOS.
Orbital elements:
2024 JH15                                                Earth MOID = 0.0033 AU
Epoch 2024 Mar. 31.0 TT = JDT 2460400.5                 Veres                   
M 313.79433              (2000.0)            P               Q                  
n   0.57154897     Peri.  222.19563     +0.07367589     +0.94879191             
a   1.4380272      Node    54.36030     -0.78385477     +0.24552710             
e   0.3408794      Incl.   22.20914     -0.61655783     -0.19877211             
P   1.72           H   27.25          G   0.15           U   8                  
Residuals in seconds of arc
240512 G96  0.0   0.1+    240512 I52  0.1+  0.0     240512 033  0.0   0.1+
240512 G96  0.1+  0.1-    240512 I52  0.0   0.1+    240512 033  0.0   0.0
240512 G96  0.1+  0.0     240512 H01  0.0   0.1+    240512 033  0.0   0.1-
240512 G96 (0.1-  1.0+)   240512 I52  0.5+  0.2-    240512 K62  0.0   0.0
240512 H01  0.0   0.0     240512 I52  0.0   0.0     240512 K62  0.3+  0.1-
240512 H01  0.0   0.0     240512 I52  0.4+  0.1-    240512 K62  0.3-  0.2-
240512 H01  0.0   0.0     240512 I52  0.3-  0.2-    240512 K62  0.1-  0.3+
240512 I52  0.1-  0.0     240512 033  0.1+  0.3+
240512 I52  0.0   0.0     240512 033  0.1+  0.0
Ephemeris:
2024 JH15                a,e,i = 1.44, 0.34, 22                  q = 0.9478
Date    TT    R. A. (2000) Decl.     Delta      r    Elong.  Phase     V
2024 04 13    16 00 25.2 +39 34 14   0.2618  1.1549   119.7    49.0    26.5
...
2024 04 28    16 05 27.2 +41 07 22   0.1408  1.0836   119.8    53.7    25.1
...
2024 05 06    16 03 42.7 +40 45 42   0.07591 1.0493   120.4    56.0    23.8
...
2024 05 12    15 52 04.1 +36 49 34   0.02725 1.0259   124.4    54.3    21.5
2024 05 13    15 44 54.0 +34 01 30   0.01920 1.0222   127.3    51.9    20.6
2024 05 14    15 29 21.1 +27 06 58   0.01130 1.0186   134.3    45.3    19.3
...
2024 05 20    04 26 07.3 -47 32 55   0.03828 0.9982    68.1   109.9    24.3
...
2024 05 28    04 15 18.7 -44 17 01   0.1029  0.9756    65.7   108.7    26.4
...
2024 06 12    04 13 06.7 -41 36 08   0.2202  0.9500    66.7   101.0    27.5
M. P. C. Staff               (C) Copyright 2024 MPC           M.P.E.C. 2024-J288
    
    
More information about the Iaude
mailing list